Tampa, FL

5:02 PM EDT on March 26, 2017 (GMT -0400)
Tampa International

Weather History for KTPA - May, 2012

Change the Weather History Date:

Thursday, May 24, 2012

  Actual Average Record
Temperature  
Mean Temperature 86 °F 80 °F  
Max Temperature 96 °F 89 °F 96 °F (2012)
Min Temperature 75 °F 72 °F 60 °F (1892)
Degree Days  
Heating Degree Days 0 0  
Month to date heating degree days 0 0  
Since 1 July heating degree days 210 538  
Cooling Degree Days 21 15  
Month to date cooling degree days 372 308  
Year to date cooling degree days 1167 768  
Growing Degree Days 36 (Base 50)    
Moisture  
Dew Point 69 °F    
Average Humidity 61    
Maximum Humidity 82    
Minimum Humidity 39    
Precipitation  
Precipitation 0.19 in 0.08 in 2.57 in (1979)
Month to date precipitation 1.14 1.43  
Year to date precipitation 7.37 11.53  
Sea Level Pressure  
Sea Level Pressure 29.89 in    
Wind  
Wind Speed 5 mph (ENE)    
Max Wind Speed 21 mph    
Max Gust Speed 29 mph    
Visibility 10 miles    
Events Rain , Thunderstorm    
T = Trace of Precipitation, MM = Missing Value Source: NWS Daily Summary

Daily Weather History Graph

Daily Weather History Graph

Search for Another Location

Airport or City:

Trip Planner

Search our weather history database for the weather conditions in past years. The results will help you decide how hot, cold, wet, or windy it might be!

Date:

Astronomy

May. 24, 2012 Rise Set
Actual Time 6:36 AM EDT 8:18 PM EDT
Civil Twilight 6:10 AM EDT 8:44 PM EDT
Nautical Twilight 5:38 AM EDT 9:15 PM EDT
Astronomical Twilight 5:06 AM EDT 9:48 PM EDT
Moon 9:32 AM EDT (5/24) 11:22 PM EDT (5/24)
Length of Visible Light 14h 34m
Length of Day
13h 42m
Waxing Crescent, 12% of the Moon is Illuminated
May 24
Waxing Crescent
May 28
First Quarter
Jun 4
Full
Jun 11
Last Quarter
Jun 19
New

Hourly Weather History & Observations

Time (EDT) Temp. Heat Index Dew Point Humidity Pressure Visibility Wind Dir Wind Speed Gust Speed Precip Events Conditions
12:53 AM 81.0 °F 84.4 °F 70.0 °F 69% 29.91 in 10.0 mi Calm Calm - N/A   Scattered Clouds
1:53 AM 80.1 °F 83.6 °F 71.1 °F 74% 29.90 in 10.0 mi SE 4.6 mph - N/A   Partly Cloudy
2:53 AM 79.0 °F - 70.0 °F 74% 29.88 in 10.0 mi SE 4.6 mph - N/A   Partly Cloudy
3:53 AM 78.1 °F - 70.0 °F 76% 29.88 in 10.0 mi East 3.5 mph - N/A   Partly Cloudy
4:53 AM 77.0 °F - 70.0 °F 79% 29.88 in 10.0 mi Calm Calm - N/A   Partly Cloudy
5:53 AM 75.9 °F - 70.0 °F 82% 29.88 in 10.0 mi Calm Calm - N/A   Partly Cloudy
6:53 AM 75.0 °F - 70.0 °F 84% 29.88 in 10.0 mi NE 4.6 mph - N/A   Partly Cloudy
7:53 AM 77.0 °F - 70.0 °F 79% 29.90 in 10.0 mi NE 4.6 mph - N/A   Scattered Clouds
8:53 AM 80.1 °F 83.2 °F 70.0 °F 71% 29.91 in 10.0 mi Calm Calm - N/A   Scattered Clouds
9:53 AM 84.0 °F 87.8 °F 69.1 °F 61% 29.91 in 10.0 mi NNE 5.8 mph - N/A   Scattered Clouds
10:53 AM 86.0 °F 88.8 °F 66.9 °F 53% 29.91 in 10.0 mi ENE 6.9 mph - N/A   Scattered Clouds
11:53 AM 88.0 °F 90.7 °F 66.9 °F 49% 29.92 in 10.0 mi Variable 5.8 mph - N/A   Mostly Cloudy
12:53 PM 90.0 °F 92.4 °F 66.0 °F 45% 29.91 in 10.0 mi ENE 9.2 mph - N/A   Scattered Clouds
1:53 PM 91.0 °F 93.8 °F 66.0 °F 44% 29.89 in 10.0 mi East 6.9 mph - N/A   Scattered Clouds
2:53 PM 93.0 °F 95.0 °F 64.9 °F 39% 29.87 in 10.0 mi Variable 4.6 mph - N/A   Scattered Clouds
3:53 PM 93.9 °F 96.1 °F 64.9 °F 38% 29.86 in 9.0 mi NNE 6.9 mph - N/A   Scattered Clouds
4:53 PM 93.9 °F 95.6 °F 64.0 °F 37% 29.84 in 10.0 mi NE 10.4 mph - N/A   Scattered Clouds
5:53 PM 91.9 °F 94.5 °F 66.0 °F 42% 29.83 in 10.0 mi ENE 6.9 mph - N/A   Mostly Cloudy
6:34 PM 89.6 °F 93.4 °F 68.0 °F 49% 29.83 in 8.0 mi East 10.4 mph 20.7 mph N/A Thunderstorm Thunderstorm
6:53 PM 84.0 °F 89.0 °F 71.1 °F 65% 29.84 in 8.0 mi East 5.8 mph 18.4 mph 0.03 in Rain , Thunderstorm Light Thunderstorms and Rain
7:53 PM 79.0 °F - 75.0 °F 88% 29.87 in 6.0 mi NNW 9.2 mph - 0.12 in Thunderstorm Mostly Cloudy
8:12 PM 77.0 °F - 73.4 °F 89% 29.90 in 9.0 mi NNW 17.3 mph 28.8 mph N/A Thunderstorm Thunderstorm
8:53 PM 77.0 °F - 72.0 °F 84% 29.89 in 9.0 mi East 3.5 mph - 0.04 in   Mostly Cloudy
9:53 PM 79.0 °F - 71.1 °F 77% 29.89 in 10.0 mi NE 3.5 mph - N/A   Scattered Clouds
10:53 PM 80.1 °F 83.2 °F 70.0 °F 71% 29.93 in 10.0 mi ESE 4.6 mph - N/A   Scattered Clouds
11:53 PM 80.1 °F 82.7 °F 68.0 °F 67% 29.94 in 10.0 mi Variable 4.6 mph - N/A   Scattered Clouds